Le nostre stazioni meteo in Italia

Pubblicità
Il mio iltempo24.it
Dunstaffnage, Gran Bretagna (99006): Temperatura & dewpoint: 10.10.2018 03:00:00 - 16.10.2018 03:00:00 (BST)Dunstaffnage, Gran Bretagna (99006): Temperatura -20cm: 10.10.2018 03:00:00 - 16.10.2018 03:00:00 (BST)Dunstaffnage, Gran Bretagna (99006): velocità del vento & gusts: 10.10.2018 03:00:00 - 16.10.2018 03:00:00 (BST)Dunstaffnage, Gran Bretagna (99006): direzione del vento: 10.10.2018 03:00:00 - 16.10.2018 03:00:00 (BST)Dunstaffnage, Gran Bretagna (99006): precipitazioni: 10.10.2018 03:00:00 - 16.10.2018 03:00:00 (BST)
Data & Tempo tt [°C] td [°C] tt -20cm [°C] ff [km/h] ff [kn] fx [km/h] fx [kn] dd rr [mm]
16.10.2018 03:00:00 9,3 5,5 - 8 4 - - E 0,0
16.10.2018 02:00:00 9,5 5,0 - 5 3 - - ENE 0,0
16.10.2018 01:00:00 9,5 4,4 - 9 5 - - ESE 0,0
16.10.2018 00:00:00 9,0 6,0 - 5 3 - - E 0,0
15.10.2018 23:00:00 7,7 5,7 - 2 1 - - S 0,0
15.10.2018 22:00:00 8,8 5,7 - 9 5 - - SE 0,0
15.10.2018 21:00:00 9,3 6,0 - 11 6 - - SE 0,0
15.10.2018 20:00:00 9,6 6,0 - 9 5 - - SSE 0,0
15.10.2018 19:00:00 10,1 6,7 - 15 8 - - SSE 0,0
15.10.2018 18:00:00 11,5 7,1 - 9 5 - - SSE 0,0
15.10.2018 17:00:00 13,6 6,0 - 8 4 - - SO 0,0
15.10.2018 16:00:00 13,4 5,5 - 11 6 - - SO 0,0
15.10.2018 15:00:00 14,1 7,5 - 13 7 - - SO 0,0
15.10.2018 14:00:00 13,6 8,1 - 11 6 - - OSO 0,0
15.10.2018 13:00:00 12,0 6,9 - 11 6 - - OSO 0,0
15.10.2018 12:00:00 12,8 7,0 - 11 6 - - SSO 0,0
15.10.2018 11:00:00 12,7 8,6 - 5 3 - - ESE 0,0
15.10.2018 10:00:00 9,1 6,7 10,7 11 6 - - ENE 0,0
15.10.2018 09:00:00 6,9 5,7 - 11 6 - - SE 0,0
15.10.2018 08:00:00 7,0 5,1 - 4 2 - - SSE 0,0
15.10.2018 07:00:00 7,4 5,7 - 9 5 - - SSE 0,0
15.10.2018 06:00:00 6,9 4,9 - 8 4 - - E 0,0
15.10.2018 05:00:00 7,0 5,2 - 9 5 - - E 0,0
15.10.2018 04:00:00 7,1 5,3 - 8 4 - - ESE 0,0
15.10.2018 03:00:00 7,3 5,3 - 11 6 - - ENE 0,0
15.10.2018 02:00:00 7,3 5,0 - 5 3 - - E 0,0
15.10.2018 01:00:00 7,6 5,2 - 13 7 - - ESE 0,0
15.10.2018 00:00:00 7,7 5,0 - 16 9 - - ESE 0,0
14.10.2018 23:00:00 5,9 4,5 - 11 6 - - E 0,0
14.10.2018 22:00:00 6,9 5,1 - 5 3 - - NNE 0,0
14.10.2018 21:00:00 6,4 4,3 - 5 3 - - OSO 0,0
14.10.2018 20:00:00 7,7 5,6 - 4 2 - - SSO 0,0
14.10.2018 19:00:00 8,9 6,0 - 2 1 - - S 0,0
14.10.2018 18:00:00 11,4 6,9 - 2 1 - - SSO 0,0
14.10.2018 17:00:00 12,1 6,0 - 4 2 - - SSO 0,0
14.10.2018 16:00:00 12,9 6,1 - 13 7 - - OSO 0,0
14.10.2018 15:00:00 12,6 5,0 - 13 7 - - SO 0,0
14.10.2018 14:00:00 13,2 5,6 - 11 6 - - SSO 0,0
14.10.2018 13:00:00 12,8 6,2 - 9 5 - - S 0,0
14.10.2018 12:00:00 10,7 8,4 - 9 5 - - ENE 0,0
14.10.2018 11:00:00 8,4 7,6 - 4 2 - - S 0,0
14.10.2018 10:00:00 8,2 7,6 11,2 9 5 - - SSE 0,0
14.10.2018 09:00:00 7,1 6,7 - 11 6 - - E 0,0
14.10.2018 08:00:00 6,5 5,9 - 2 1 - - SSO 0,0
14.10.2018 07:00:00 7,6 6,8 - 4 2 - - SSE 0,0
14.10.2018 06:00:00 7,6 6,9 - 8 4 - - S 0,2
14.10.2018 05:00:00 8,3 7,4 - 8 4 - - SO 0,0
14.10.2018 04:00:00 8,2 6,3 - 5 3 - - SO 0,0
14.10.2018 03:00:00 9,3 6,7 - 9 5 - - O 0,0
14.10.2018 02:00:00 9,4 6,6 - 15 8 - - O 0,0
14.10.2018 01:00:00 9,5 7,9 - 28 15 - - ONO 0,2
14.10.2018 00:00:00 9,2 7,9 - 16 9 - - ONO 0,6
13.10.2018 23:00:00 9,6 8,1 - 21 11 - - ONO 0,0
13.10.2018 22:00:00 9,7 8,3 - 16 9 - - ONO 0,0
13.10.2018 21:00:00 10,1 8,4 - 8 4 - - NNO 0,2
13.10.2018 20:00:00 9,9 9,0 - 9 5 - - NNO 0,0
13.10.2018 19:00:00 10,0 9,4 - 8 4 - - N 0,6
13.10.2018 18:00:00 10,1 9,5 - 9 5 - - N 1,6
13.10.2018 17:00:00 10,4 9,8 - 13 7 - - NNE 2,0
13.10.2018 16:00:00 10,5 9,8 - 15 8 - - NE 2,0
13.10.2018 15:00:00 10,6 9,9 - 5 3 - - NNE 1,6
13.10.2018 14:00:00 10,5 9,9 - 9 5 - - N 1,0
13.10.2018 13:00:00 10,3 9,7 - 8 4 - - ENE 2,0
13.10.2018 12:00:00 10,2 9,6 - 4 2 - - E 1,8
13.10.2018 11:00:00 10,1 9,4 - 5 3 - - ENE 1,0
13.10.2018 10:00:00 10,4 9,4 11,7 8 4 - - E 0,6
13.10.2018 09:00:00 10,3 8,9 - 8 4 - - ESE 0,2
13.10.2018 08:00:00 10,7 8,6 - 9 5 - - SE 0,0
13.10.2018 07:00:00 11,0 8,7 - 13 7 - - SSE 0,0
13.10.2018 06:00:00 11,3 8,5 - 13 7 - - SSE 0,0
13.10.2018 05:00:00 11,3 8,5 - 11 6 - - SSE 0,0
13.10.2018 04:00:00 11,7 8,6 - 15 8 - - S 0,0
13.10.2018 03:00:00 11,5 9,1 - 13 7 - - SSO 0,2
13.10.2018 02:00:00 12,1 8,6 - 18 10 - - S 0,0
13.10.2018 01:00:00 11,8 9,1 - 21 11 - - SSO 0,2
13.10.2018 00:00:00 13,0 8,3 - 24 13 57 31 SO 0,0
12.10.2018 23:00:00 13,7 8,5 - 28 15 55 30 SSO 0,0
12.10.2018 22:00:00 13,7 9,2 - 28 15 52 28 SSO 0,0
12.10.2018 21:00:00 13,4 8,7 - 29 16 55 30 S 0,0
12.10.2018 20:00:00 13,0 8,4 - 22 12 48 26 S 0,0
12.10.2018 19:00:00 13,4 9,4 - 22 12 - - S 0,0
12.10.2018 18:00:00 13,1 9,9 - 18 10 - - S 0,0
12.10.2018 17:00:00 12,9 10,2 - 21 11 - - S 0,4
12.10.2018 16:00:00 12,8 10,8 - 15 8 - - S 0,8
12.10.2018 15:00:00 13,3 10,4 - 24 13 57 31 S 0,4
12.10.2018 14:00:00 15,6 10,1 - 28 15 55 30 S 0,0
12.10.2018 13:00:00 15,2 9,1 - 29 16 68 37 S 0,0
12.10.2018 12:00:00 15,1 9,6 - 29 16 50 27 S 0,2
12.10.2018 11:00:00 13,8 8,6 - 21 11 - - S 0,0
12.10.2018 10:00:00 14,0 8,5 11,7 26 14 48 26 S 0,0
12.10.2018 09:00:00 14,0 10,9 - 26 14 46 25 S 0,4
12.10.2018 08:00:00 11,1 9,8 - 24 13 61 33 ESE 1,0
12.10.2018 07:00:00 9,9 8,7 - 39 21 67 36 ESE 2,4
12.10.2018 06:00:00 10,0 8,9 - 29 16 52 28 E 3,4
12.10.2018 05:00:00 10,6 8,1 - 28 15 - - E 0,0
12.10.2018 04:00:00 10,8 7,6 - 16 9 - - ESE 0,0
12.10.2018 03:00:00 10,4 8,0 - 22 12 - - E 0,0
12.10.2018 02:00:00 10,8 9,0 - 16 9 - - E 0,0
12.10.2018 01:00:00 9,9 8,3 - 11 6 - - E 0,0
12.10.2018 00:00:00 10,2 8,7 - 13 7 - - ESE 0,0
11.10.2018 23:00:00 10,2 8,7 - 11 6 - - ESE 0,0
11.10.2018 22:00:00 10,3 8,7 - 11 6 - - ESE 0,0
11.10.2018 21:00:00 10,6 9,0 - 13 7 - - SSE 0,0
11.10.2018 20:00:00 9,9 9,1 - 13 7 - - SE 0,0
11.10.2018 19:00:00 10,5 9,5 - 4 2 - - S 0,2
11.10.2018 18:00:00 11,1 9,7 - 16 9 - - OSO 0,4
11.10.2018 17:00:00 11,7 10,7 - 21 11 - - SO 1,6
11.10.2018 16:00:00 15,3 12,2 - 13 7 - - S 0,2
11.10.2018 15:00:00 16,5 12,5 - 8 4 - - S 0,2
11.10.2018 14:00:00 15,5 13,5 - 13 7 - - S 0,8
11.10.2018 13:00:00 16,5 12,8 - 8 4 - - S 0,0
11.10.2018 12:00:00 15,2 13,0 - 5 3 - - SE 0,2
11.10.2018 11:00:00 13,7 12,5 - 11 6 - - E 0,2
11.10.2018 10:00:00 14,7 10,5 12,0 26 14 - - E 0,0
11.10.2018 09:00:00 14,7 10,0 - 21 11 - - E 0,0
11.10.2018 08:00:00 15,0 9,1 - 24 13 - - ESE 0,0
11.10.2018 07:00:00 15,1 8,8 - 16 9 46 25 ESE 0,0
11.10.2018 06:00:00 15,5 9,2 - 34 18 54 29 ESE 0,0
11.10.2018 05:00:00 15,7 9,7 - 21 11 - - ESE 0,0
11.10.2018 04:00:00 15,8 10,2 - 16 9 - - ESE 0,0
11.10.2018 03:00:00 15,9 11,1 - 16 9 - - ESE 0,0
11.10.2018 02:00:00 16,5 11,7 - 21 11 - - ESE 0,0
11.10.2018 01:00:00 16,7 11,8 - 24 13 - - ESE 0,0
11.10.2018 00:00:00 16,4 11,8 - 21 11 - - ESE 0,0
10.10.2018 23:00:00 16,5 11,8 - 24 13 - - E 0,0
10.10.2018 22:00:00 16,8 11,8 - 13 7 - - ESE 0,0
10.10.2018 21:00:00 17,5 11,9 - 28 15 46 25 E 0,0
10.10.2018 20:00:00 17,3 12,0 - 31 17 50 27 ESE 0,0
10.10.2018 19:00:00 17,4 11,7 - 24 13 - - E 0,0
10.10.2018 18:00:00 18,0 12,2 - 28 15 59 32 ESE 0,0
10.10.2018 17:00:00 18,9 12,6 - 13 7 - - ESE 0,0
10.10.2018 16:00:00 17,8 12,2 - 22 12 46 25 E 0,0
10.10.2018 15:00:00 19,0 12,9 - 31 17 - - ESE 0,0
10.10.2018 14:00:00 18,3 12,4 - 21 11 - - ESE 0,0
10.10.2018 13:00:00 18,1 12,9 - 13 7 - - ESE 0,0
10.10.2018 12:00:00 16,2 11,4 - 8 4 - - E 0,0
10.10.2018 11:00:00 15,3 11,3 - 5 3 - - ESE 0,0
10.10.2018 10:00:00 15,2 11,7 11,7 8 4 - - SE 0,0
10.10.2018 09:00:00 14,6 11,6 - 5 3 - - SE 0,0
10.10.2018 08:00:00 14,0 10,9 - 15 8 - - S 0,0
10.10.2018 07:00:00 13,8 10,4 - 15 8 - - S 0,0
10.10.2018 06:00:00 12,9 10,1 - 18 10 - - S 0,0
10.10.2018 05:00:00 12,8 10,3 - 9 5 - - S 0,0
10.10.2018 04:00:00 13,3 11,0 - 11 6 - - SSE 0,0
10.10.2018 03:00:00 13,6 11,5 - 16 9 - - S 0,0

tt = Temperatura
td = dewpoint
tt -20cm = Temperatura -20cm
ff = velocità del vento
fx = gusts
dd = direzione del vento
rr = precipitazioni

Stazioni seguenti

WeatherPro
AMSI
MeteoEarth